When you browse on this site, cookies collect data to enhance your experience and personalize the content and advertising you see.
Visit our Privacy Policy to learn more. By continuing to use the site, you agree to this use of cookies and data.
  • In Hungary
  • List of Countries
  • For 7 days
  • Water Temperature
  • Weather Map
  • News
  • Weather Widgets
  • user-avatar
    Login

    Hourly Weather Boca de Sábalo

    Today, 17 November, Sunday

    Time Temperature Precipitation Wind Pressure Humidity
    00:00 +24°C° 0.1 mm 0 mps 755 mmHg 94%
    01:00 +23°C° 0.1 mm 0 mps 754 mmHg 94%
    02:00 +23°C° 0.1 mm 0 mps 754 mmHg 94%
    03:00 +23°C° 0.1 mm 0 mps 754 mmHg 95%
    04:00 +25°C° 0.1 mm 1 mps 753 mmHg 95%
    05:00 +25°C° 0 mm 1 mps 754 mmHg 95%
    06:00 +25°C° 0 mm 1 mps 754 mmHg 94%
    07:00 +26°C° 0 mm 1 mps 755 mmHg 94%
    08:00 +28°C° 0 mm 1 mps 755 mmHg 85%
    09:00 +29°C° 0 mm 1 mps 755 mmHg 77%
    10:00 +31°C° 0 mm 1 mps 755 mmHg 69%
    11:00 +32°C° 0.1 mm 1 mps 755 mmHg 67%
    12:00 +32°C° 0.1 mm 1 mps 754 mmHg 65%
    13:00 +34°C° 0.1 mm 2 mps 754 mmHg 63%
    14:00 +32°C° 0.2 mm 2 mps 753 mmHg 67%
    15:00 +31°C° 0.2 mm 2 mps 753 mmHg 71%
    16:00 +30°C° 0.2 mm 2 mps 752 mmHg 75%
    17:00 +29°C° 0.2 mm 2 mps 753 mmHg 82%
    18:00 +28°C° 0.2 mm 1 mps 753 mmHg 88%
    19:00 +26°C° 0.2 mm 1 mps 754 mmHg 94%
    20:00 +26°C° 0.1 mm 1 mps 754 mmHg 93%
    21:00 +26°C° 0.1 mm 1 mps 755 mmHg 93%
    22:00 +24°C° 0.1 mm 0 mps 755 mmHg 92%
    23:00 +24°C° 0.1 mm 0 mps 755 mmHg 93%

    Tomorrow, 18 November, Monday

    Time Temperature Precipitation Wind Pressure Humidity
    00:00 +26°C° 0.1 mm 1 mps 755 mmHg 93%
    01:00 +25°C° 0.1 mm 1 mps 754 mmHg 94%
    02:00 +25°C° 0 mm 1 mps 754 mmHg 94%
    03:00 +25°C° 0 mm 1 mps 754 mmHg 95%
    04:00 +25°C° 0 mm 1 mps 754 mmHg 95%
    05:00 +25°C° 0 mm 1 mps 754 mmHg 95%
    06:00 +25°C° 0 mm 1 mps 755 mmHg 94%
    07:00 +25°C° 0 mm 1 mps 755 mmHg 93%
    08:00 +27°C° 0 mm 1 mps 755 mmHg 84%
    09:00 +29°C° 0 mm 1 mps 755 mmHg 74%
    10:00 +31°C° 0 mm 1 mps 756 mmHg 65%
    11:00 +32°C° 0 mm 1 mps 755 mmHg 62%
    12:00 +34°C° 0 mm 2 mps 754 mmHg 59%
    13:00 +34°C° 0 mm 2 mps 754 mmHg 56%
    14:00 +32°C° 0 mm 2 mps 753 mmHg 62%
    15:00 +31°C° 0 mm 3 mps 753 mmHg 67%
    16:00 +31°C° 0 mm 3 mps 753 mmHg 72%
    17:00 +29°C° 0.1 mm 2 mps 753 mmHg 79%
    18:00 +28°C° 0.1 mm 2 mps 754 mmHg 86%
    19:00 +26°C° 0.1 mm 1 mps 754 mmHg 93%
    20:00 +26°C° 0.1 mm 1 mps 755 mmHg 93%
    21:00 +26°C° 0.1 mm 1 mps 755 mmHg 93%
    22:00 +26°C° 0.1 mm 1 mps 756 mmHg 93%
    23:00 +26°C° 0.1 mm 1 mps 756 mmHg 93%

    Day after tomorrow, 19 November, Tuesday

    Time Temperature Precipitation Wind Pressure Humidity
    00:00 +25°C° 0.1 mm 1 mps 755 mmHg 94%
    01:00 +25°C° 0.1 mm 1 mps 755 mmHg 95%
    02:00 +25°C° 0.2 mm 1 mps 755 mmHg 95%
    03:00 +25°C° 0.2 mm 1 mps 755 mmHg 95%
    04:00 +25°C° 0.2 mm 1 mps 754 mmHg 96%
    05:00 +25°C° 0 mm 1 mps 755 mmHg 95%
    06:00 +25°C° 0 mm 1 mps 755 mmHg 94%
    07:00 +25°C° 0 mm 1 mps 756 mmHg 93%
    08:00 +27°C° 0 mm 1 mps 756 mmHg 84%
    09:00 +29°C° 0 mm 1 mps 756 mmHg 75%
    10:00 +31°C° 0 mm 1 mps 757 mmHg 65%
    11:00 +32°C° 0 mm 1 mps 756 mmHg 64%
    12:00 +32°C° 0 mm 1 mps 755 mmHg 63%
    13:00 +32°C° 0 mm 2 mps 755 mmHg 62%
    14:00 +31°C° 0.3 mm 2 mps 755 mmHg 68%
    15:00 +31°C° 0.3 mm 2 mps 754 mmHg 73%
    16:00 +30°C° 0.3 mm 2 mps 754 mmHg 79%
    17:00 +28°C° 0.4 mm 2 mps 754 mmHg 84%
    18:00 +27°C° 0.4 mm 1 mps 755 mmHg 88%
    19:00 +26°C° 0.4 mm 1 mps 755 mmHg 93%
    20:00 +24°C° 0.1 mm 0 mps 756 mmHg 93%
    21:00 +24°C° 0.1 mm 0 mps 756 mmHg 93%
    22:00 +24°C° 0.1 mm 0 mps 757 mmHg 93%
    23:00 +24°C° 0.1 mm 0 mps 756 mmHg 93%

    20 November, Wednesday

    Time Temperature Precipitation Wind Pressure Humidity
    00:00 +23°C° 0.1 mm 0 mps 756 mmHg 93%
    01:00 +23°C° 0.1 mm 0 mps 756 mmHg 93%
    02:00 +25°C° 0.1 mm 1 mps 756 mmHg 94%
    03:00 +25°C° 0.1 mm 1 mps 756 mmHg 95%
    04:00 +25°C° 0.1 mm 1 mps 755 mmHg 96%
    05:00 +25°C° 0 mm 1 mps 756 mmHg 95%
    06:00 +25°C° 0 mm 1 mps 756 mmHg 95%
    07:00 +25°C° 0 mm 1 mps 757 mmHg 94%
    08:00 +27°C° 0 mm 1 mps 757 mmHg 86%
    09:00 +29°C° 0 mm 1 mps 757 mmHg 77%
    10:00 +31°C° 0 mm 1 mps 757 mmHg 69%
    11:00 +31°C° 0.4 mm 1 mps 757 mmHg 71%
    12:00 +31°C° 0.4 mm 1 mps 756 mmHg 74%
    13:00 +31°C° 0.4 mm 1 mps 755 mmHg 77%
    14:00 +30°C° 0.5 mm 2 mps 755 mmHg 76%
    15:00 +30°C° 0.5 mm 2 mps 754 mmHg 76%
    16:00 +30°C° 0.5 mm 2 mps 754 mmHg 75%
    17:00 +29°C° 0.1 mm 1 mps 754 mmHg 81%
    18:00 +28°C° 0.1 mm 1 mps 755 mmHg 86%
    19:00 +24°C° 0.1 mm 0 mps 755 mmHg 92%
    20:00 +26°C° 0 mm 1 mps 756 mmHg 92%
    21:00 +26°C° 0 mm 1 mps 756 mmHg 93%
    22:00 +26°C° 0 mm 2 mps 757 mmHg 93%
    23:00 +26°C° 0 mm 1 mps 756 mmHg 94%

    21 November, Thursday

    Time Temperature Precipitation Wind Pressure Humidity
    00:00 +25°C° 0 mm 1 mps 756 mmHg 95%
    01:00 +25°C° 0 mm 1 mps 756 mmHg 95%
    02:00 +25°C° 0 mm 1 mps 756 mmHg 96%
    03:00 +25°C° 0 mm 1 mps 756 mmHg 96%
    04:00 +25°C° 0 mm 1 mps 755 mmHg 96%
    05:00 +25°C° 0 mm 1 mps 756 mmHg 96%
    06:00 +25°C° 0 mm 1 mps 756 mmHg 95%
    07:00 +25°C° 0 mm 1 mps 756 mmHg 94%
    08:00 +27°C° 0.1 mm 1 mps 757 mmHg 88%
    09:00 +29°C° 0.1 mm 1 mps 757 mmHg 81%
    10:00 +30°C° 0.1 mm 1 mps 757 mmHg 75%
    11:00 +31°C° 0.2 mm 2 mps 757 mmHg 72%
    12:00 +31°C° 0.2 mm 2 mps 756 mmHg 70%
    13:00 +32°C° 0.2 mm 2 mps 755 mmHg 67%
    14:00 +31°C° 0.3 mm 2 mps 755 mmHg 71%
    15:00 +30°C° 0.3 mm 2 mps 754 mmHg 75%
    16:00 +30°C° 0.3 mm 2 mps 754 mmHg 78%
    17:00 +28°C° 0.2 mm 1 mps 754 mmHg 83%
    18:00 +27°C° 0.2 mm 1 mps 755 mmHg 87%
    19:00 +24°C° 0.2 mm 0 mps 755 mmHg 92%
    20:00 +24°C° 0.1 mm 0 mps 756 mmHg 92%
    21:00 +24°C° 0.1 mm 0 mps 756 mmHg 92%
    22:00 +25°C° 0.1 mm 1 mps 757 mmHg 92%
    23:00 +25°C° 0.2 mm 1 mps 756 mmHg 92%

    22 November, Friday

    Time Temperature Precipitation Wind Pressure Humidity
    00:00 +25°C° 0.2 mm 1 mps 756 mmHg 93%
    01:00 +25°C° 0.2 mm 1 mps 756 mmHg 93%
    02:00 +25°C° 0.1 mm 1 mps 755 mmHg 93%
    03:00 +25°C° 0.1 mm 1 mps 755 mmHg 94%
    04:00 +24°C° 0.1 mm 1 mps 755 mmHg 94%
    05:00 +25°C° 0.1 mm 1 mps 755 mmHg 93%
    06:00 +25°C° 0.1 mm 1 mps 756 mmHg 93%
    07:00 +25°C° 0.1 mm 1 mps 756 mmHg 92%
    08:00 +27°C° 0.1 mm 1 mps 756 mmHg 84%
    09:00 +29°C° 0.1 mm 1 mps 757 mmHg 77%
    10:00 +29°C° 0.1 mm 0 mps 757 mmHg 69%
    11:00 +31°C° 0.5 mm 1 mps 756 mmHg 73%
    12:00 +30°C° 0.5 mm 2 mps 756 mmHg 78%
    13:00 +30°C° 0.5 mm 2 mps 755 mmHg 82%
    14:00 +29°C° 0.4 mm 2 mps 755 mmHg 81%
    15:00 +29°C° 0.4 mm 2 mps 754 mmHg 81%
    16:00 +29°C° 0.4 mm 2 mps 753 mmHg 81%
    17:00 +28°C° 0.1 mm 2 mps 754 mmHg 85%
    18:00 +27°C° 0.1 mm 1 mps 754 mmHg 89%
    19:00 +26°C° 0.1 mm 1 mps 755 mmHg 94%
    20:00 +25°C° 0.4 mm 1 mps 755 mmHg 94%
    21:00 +25°C° 0.4 mm 1 mps 756 mmHg 94%
    22:00 +25°C° 0.4 mm 1 mps 756 mmHg 93%
    23:00 +25°C° 0.1 mm 1 mps 756 mmHg 94%
    Show more